[[{"header":{"parameterUnit":"m.s-1","parameterCategory":1,"la1":30.2991,"la2":30.254,"lo1":-89.0895,"lo2":-89.0444,"dy":0.0017,"dx":0.0017,"nx":28,"ny":28,"refTime":"2024-04-02T09:00:00:Z","depth":0,"parameterNumber":2,"parameterNumberName":"U-component_of_WINDS"},"data":[0,0,0,0,0,0,0,0,0,0,0,0,0,0,0,0,0,0,0,0,0,0,0,0,0,0,0,0,0,0,0,0,0,0,0,0,0,0,0,0,0,0,0,0,0,0,0,0,0,0,0,0,0,0,0,0,0,0,3.9614,3.9614,0,3.9643,3.9643,3.9644,3.9573,3.9571,3.9569,3.9567,3.9603,3.9606,3.9609,0,0,0,0,0,0,0,0,0,0,0,0,0,3.9506,3.9508,3.9614,3.9614,3.9614,3.9643,3.9643,3.9644,3.9574,3.9571,3.9568,3.9566,3.9602,3.9606,3.961,0,0,0,0,0,0,0,0,0,0,0,0,0,3.9546,3.9509,3.9613,3.9583,3.958,3.9643,3.9643,3.9644,3.9574,3.9571,3.9567,3.9564,3.9601,3.9606,3.961,3.9706,0,0,3.9624,3.9626,0,0,0,0,0,0,0,0,3.9544,3.955,3.9587,3.9585,3.9582,3.9601,3.9619,3.9665,3.9575,3.9577,3.9566,3.9563,3.9606,3.961,3.9623,3.9708,3.971,3.9625,3.9628,3.963,3.9631,0,0,0,0,0,0,0,3.9541,3.9548,3.9625,3.9587,3.9585,3.957,3.9572,3.9627,3.961,3.9576,3.9571,3.9575,3.9604,3.9619,3.9623,3.971,3.9625,3.9629,3.9632,3.9633,3.988,3.9884,0,0,0,0,0,0,3.9541,3.9546,3.9624,3.9626,3.9554,3.9575,3.9577,3.9598,3.9609,3.9607,3.9578,3.9572,3.9612,3.9618,3.9624,3.974,3.963,3.9634,3.9637,3.9877,3.9881,3.9885,0,0,0,0,0,0,3.9539,3.9549,3.9623,3.9585,3.9593,3.958,3.9605,3.9601,3.9615,3.961,3.9608,3.9596,3.961,3.9618,3.9687,3.974,3.9636,3.964,3.9872,3.9878,3.9883,3.997,0,0,0,0,0,0,3.9536,3.9548,3.9582,3.9586,3.9595,3.9683,3.9608,3.9604,3.9623,3.9615,3.9626,3.9625,3.9608,3.968,3.9692,3.9744,3.9644,3.9867,3.9875,3.9881,3.9963,3.9978,3.9991,0,0,0,0,0,3.9532,3.9606,3.9584,3.9594,3.9637,3.9686,3.9691,3.9668,3.9627,3.9663,3.9661,3.9625,3.9732,3.9688,3.97,3.9755,3.9864,3.9873,3.9881,3.9956,3.9975,3.9991,0,0,0,0,0,0,3.961,3.9606,3.9581,3.9658,3.9673,3.9674,3.9718,3.9689,3.9717,3.9709,3.9681,3.9684,3.976,3.9764,3.9715,3.9851,3.9792,3.9803,3.9845,3.9863,3.9877,3.9875,3.9648,0,0,0,0,0,3.9636,3.9673,3.9668,3.9737,3.9745,3.9731,3.9751,3.9732,3.9747,3.9753,3.9756,3.9774,3.9812,3.9838,3.9872,3.9963,3.9967,4.0008,4.0022,4.0034,4.0044,4.0096,4.0115,3.9913,3.9913,3.9913,0,0,3.969,3.9692,3.9717,3.9752,3.9761,3.9804,3.9736,3.9783,3.9815,3.9761,3.9826,3.9829,3.9848,3.9929,3.9965,3.9936,4.0101,4.0045,4.0054,4.0058,4.0107,4.0126,4.0143,3.9919,3.9918,3.9917,0,0,3.981,3.9814,3.9873,3.9884,3.9898,3.9888,3.9903,3.9909,3.9909,3.9973,3.9935,3.9974,4.004,4.0056,4.0072,4.0203,4.0172,4.0215,4.0291,4.0342,4.0358,4.0372,4.0421,4.0439,4.0226,4.0226,4.0226,0,3.9875,3.9935,3.9907,3.9957,3.9975,3.9928,3.9989,4.0002,4.0028,4.0043,4.0009,4.0092,4.0101,4.0187,4.0219,4.0234,4.0252,4.0213,4.0357,4.0371,4.0384,4.0431,4.0449,4.0231,4.023,4.023,4.0229,0,4.0016,4.0059,4.0105,4.013,4.0153,4.0209,4.0193,4.0221,4.0201,4.0197,4.0266,4.0275,4.0313,4.0332,4.0313,4.0417,4.0398,4.0361,4.0301,4.0409,4.0452,4.047,4.0239,4.0237,4.0235,4.0234,0,0,4.0184,4.0195,4.0212,4.0225,4.0239,4.0272,4.0328,4.0363,4.0389,4.041,4.0458,4.0516,4.0483,4.0502,4.0486,4.053,4.0637,4.0489,4.0489,4.0517,4.0755,4.0783,4.0803,4.0617,4.062,4.0623,4.0754,0,4.0303,4.0396,4.0374,4.0467,4.0508,4.0465,4.0514,4.0531,4.0529,4.0566,4.0565,4.0607,4.0559,4.0571,4.0613,4.0615,4.0684,4.0605,4.0664,4.0666,4.0661,4.0826,4.0854,4.0978,4.077,4.0773,4.0775,0,4.0454,4.048,4.0577,4.0587,4.0604,4.0648,4.068,4.0715,4.0734,4.073,4.0753,4.0729,4.0788,4.0728,4.0811,4.0757,4.0781,4.0786,4.079,4.0795,4.0727,4.0836,4.1016,4.1035,4.0801,4.0799,4.0797,0,4.0569,4.0628,4.0694,4.0706,4.072,4.0752,4.076,4.0776,4.0799,4.0829,4.0845,4.0881,4.0902,4.0933,4.0921,4.0877,4.1008,4.0945,4.1008,4.1009,4.1037,4.1036,4.1224,4.1051,4.1051,4.1051,4.105,0,4.0705,4.0767,4.0746,4.0787,4.0856,4.0833,4.0903,4.0906,4.0921,4.0964,4.0931,4.0973,4.0954,4.0996,4.0988,4.1059,4.1069,4.1069,4.1066,4.1073,4.1073,4.1088,4.1079,4.1056,4.1055,4.1054,4.1053,0,4.0844,4.0833,4.0902,4.091,4.0914,4.0965,4.0973,4.1013,4.101,4.1065,4.1077,4.1073,4.1121,4.1112,4.1165,4.116,4.125,4.1237,4.1243,4.124,4.1304,4.1299,4.151,4.1537,4.1346,4.1348,4.1349,0,4.0932,4.0978,4.0991,4.1017,4.1027,4.1069,4.1093,4.1074,4.1101,4.1129,4.1167,4.1211,4.1246,4.1325,4.1329,4.1371,4.1358,4.1429,4.1364,4.137,4.1361,4.1359,4.1365,4.1442,4.1445,4.1446,4.1448,0,4.109,4.1083,4.1117,4.1151,4.1181,4.1207,4.1231,4.1255,4.1238,4.1271,4.1319,4.1346,4.1401,4.1447,4.1487,4.1498,4.1472,4.1468,4.1485,4.1492,4.1495,4.1496,4.1279,4.1463,4.1462,4.1461,4.146,4.1459,4.1206,4.1247,4.1263,4.1304,4.132,4.1343,4.1382,4.1384,4.1423,4.1464,4.1452,4.1508,4.153,4.158,4.1597,4.1642,4.1616,4.164,4.1646,4.1653,4.1661,4.1488,4.1649,4.1649,4.1648,4.1648,4.1648,0,4.1364,4.1373,4.1411,4.1444,4.1478,4.1449,4.1475,4.1505,4.1554,4.1576,4.1611,4.1668,4.1714,4.1722,4.1766,4.1801,4.1791,4.1814,4.1811,4.1815,4.1681,4.1663,4.1822,4.1822,4.1822,4.1822,4.1822,4.1822,4.1449,4.1516,4.1512,4.1589,4.1598,4.165,4.1668,4.1691,4.1709,4.1773,4.1811,4.1815,4.1833,4.1879,4.1921,4.1923,4.1941,4.1969,4.1967,4.1841,4.1824,4.1807,4.179,4.1973,4.1973,4.2097,4.2098,4.2099]},{"header":{"parameterUnit":"m.s-1","parameterCategory":1,"la1":30.2991,"la2":30.254,"lo1":-89.0895,"lo2":-89.0444,"dy":0.0017,"dx":0.0017,"nx":28,"ny":28,"refTime":"2024-04-02T09:00:00:Z","depth":0,"parameterNumber":3,"parameterNumberName":"V-component_of_WINDS"},"data":[0,0,0,0,0,0,0,0,0,0,0,0,0,0,0,0,0,0,0,0,0,0,0,0,0,0,0,0,0,0,0,0,0,0,0,0,0,0,0,0,0,0,0,0,0,0,0,0,0,0,0,0,0,0,0,0,0,0,3.5454,3.5458,0,3.5806,3.581,3.5814,3.5873,3.587,3.5867,3.5864,3.6226,3.6238,3.625,0,0,0,0,0,0,0,0,0,0,0,0,0,3.4831,3.4842,3.5454,3.5458,3.5463,3.5806,3.581,3.5815,3.5874,3.587,3.5866,3.5863,3.6222,3.6236,3.6251,0,0,0,0,0,0,0,0,0,0,0,0,0,3.5134,3.4846,3.5453,3.5533,3.5544,3.5805,3.5811,3.5817,3.5875,3.587,3.5865,3.5861,3.6217,3.6235,3.6253,3.6459,0,0,3.631,3.6318,0,0,0,0,0,0,0,0,3.5117,3.5157,3.5517,3.5528,3.5541,3.5791,3.5723,3.6032,3.5876,3.5749,3.5864,3.5859,3.6085,3.6114,3.619,3.6476,3.6491,3.6312,3.6323,3.6331,3.6336,0,0,0,0,0,0,0,3.5096,3.5142,3.5593,3.5522,3.5537,3.5551,3.5589,3.5782,3.5938,3.576,3.5765,3.5806,3.609,3.6172,3.6199,3.6497,3.6311,3.6328,3.6339,3.6347,3.6968,3.6973,0,0,0,0,0,0,3.506,3.5124,3.5582,3.5604,3.5313,3.5566,3.5609,3.5715,3.5936,3.5965,3.5809,3.5807,3.6142,3.6177,3.6212,3.6468,3.6331,3.6348,3.6359,3.6963,3.6969,3.6975,0,0,0,0,0,0,3.5047,3.5101,3.5568,3.5366,3.5426,3.5582,3.5701,3.5725,3.5806,3.5973,3.6001,3.5864,3.614,3.6186,3.6397,3.6481,3.6357,3.6374,3.6957,3.6965,3.6972,3.698,0,0,0,0,0,0,3.5029,3.5095,3.5176,3.5367,3.5437,3.5747,3.5706,3.5735,3.5838,3.5839,3.6032,3.606,3.614,3.6369,3.6415,3.6504,3.6388,3.695,3.696,3.697,3.6973,3.6987,3.6999,0,0,0,0,0,3.5006,3.5164,3.5179,3.5234,3.554,3.5752,3.5792,3.5881,3.5845,3.5927,3.6033,3.6054,3.6463,3.639,3.6443,3.6539,3.6945,3.6957,3.6969,3.6967,3.6984,3.6999,0,0,0,0,0,0,3.4979,3.5191,3.521,3.5434,3.5575,3.5762,3.5868,3.5896,3.605,3.6044,3.6148,3.6191,3.6397,3.6489,3.6403,3.6749,3.6701,3.6725,3.6682,3.67,3.6713,3.6687,3.6404,0,0,0,0,0,3.4999,3.5153,3.533,3.5511,3.558,3.5711,3.5807,3.5863,3.6013,3.6072,3.6195,3.6339,3.6501,3.6605,3.6763,3.6985,3.7029,3.7077,3.709,3.71,3.712,3.7244,3.7268,3.7014,3.7014,3.7014,0,0,3.5042,3.5177,3.5268,3.5509,3.5624,3.5782,3.5761,3.5929,3.6047,3.6098,3.6305,3.64,3.6568,3.6785,3.6887,3.6868,3.7199,3.7116,3.7122,3.7137,3.7259,3.7283,3.7304,3.7023,3.7021,3.702,0,0,3.5202,3.5319,3.5483,3.5598,3.5773,3.5859,3.5897,3.608,3.6145,3.6354,3.6396,3.6537,3.6813,3.6931,3.7026,3.7228,3.7253,3.7276,3.7346,3.7466,3.7486,3.7504,3.7577,3.7601,3.7294,3.7294,3.7295,0,3.5234,3.5473,3.5563,3.5729,3.5833,3.5886,3.6052,3.616,3.6377,3.6448,3.6423,3.6769,3.6886,3.7132,3.718,3.7256,3.7304,3.7256,3.7476,3.7495,3.7513,3.7584,3.7611,3.7296,3.7296,3.7296,3.7296,0,3.5503,3.5668,3.5779,3.5987,3.6104,3.6269,3.6384,3.6491,3.6536,3.6624,3.6836,3.6977,3.7164,3.7226,3.7272,3.7479,3.7461,3.7455,3.741,3.7538,3.7606,3.7633,3.7299,3.7298,3.7298,3.7297,0,0,3.5658,3.5912,3.5952,3.6046,3.6242,3.6371,3.6538,3.672,3.681,3.6957,3.71,3.7331,3.7325,3.7434,3.7493,3.7598,3.7749,3.7579,3.7585,3.7607,3.7986,3.799,3.802,3.7765,3.7771,3.7775,3.7972,0,3.5841,3.6141,3.6226,3.6479,3.6633,3.6683,3.6829,3.6964,3.705,3.7193,3.7288,3.745,3.7431,3.7497,3.7603,3.7708,3.7827,3.7695,3.79,3.7906,3.7858,3.8056,3.8062,3.8241,3.7999,3.8004,3.8007,0,3.6096,3.6248,3.6516,3.6691,3.6758,3.6887,3.7061,3.7196,3.735,3.7405,3.7526,3.7575,3.7751,3.7694,3.7937,3.7845,3.7934,3.7998,3.8007,3.8031,3.7965,3.8086,3.83,3.8327,3.8049,3.8046,3.8043,0,3.6182,3.6453,3.6649,3.6728,3.6937,3.7027,3.7118,3.7267,3.7371,3.7522,3.7591,3.776,3.7853,3.7983,3.8076,3.8027,3.8312,3.8263,3.8363,3.8361,3.8423,3.8418,3.8655,3.8477,3.8476,3.8476,3.8475,0,3.6379,3.6541,3.6691,3.6811,3.6994,3.7089,3.7267,3.736,3.7493,3.7632,3.7685,3.7815,3.793,3.8074,3.8148,3.8339,3.838,3.843,3.8448,3.8426,3.842,3.8487,3.8478,3.8483,3.8481,3.848,3.8479,0,3.6508,3.6614,3.6831,3.701,3.7059,3.7186,3.7339,3.7458,3.7544,3.772,3.7766,3.7903,3.8076,3.8182,3.8401,3.8451,3.8661,3.8673,3.8609,3.8618,3.8712,3.8702,3.9002,3.9046,3.8836,3.8838,3.884,0,3.6627,3.6753,3.6945,3.7042,3.7134,3.729,3.7396,3.7493,3.7601,3.7785,3.7882,3.8058,3.8204,3.8477,3.8597,3.8764,3.8782,3.8875,3.8808,3.8782,3.8785,3.8777,3.879,3.8887,3.8889,3.889,3.8892,0,3.6827,3.6873,3.7024,3.7194,3.7318,3.7457,3.7594,3.767,3.7791,3.791,3.8087,3.82,3.8423,3.8597,3.8775,3.8868,3.8901,3.8911,3.8944,3.8924,3.8882,3.8907,3.8641,3.8905,3.8904,3.8903,3.8902,3.8901,3.6956,3.707,3.7223,3.7389,3.7503,3.763,3.775,3.7851,3.8001,3.819,3.8238,3.8424,3.8574,3.8816,3.8913,3.9059,3.9045,3.9092,3.9104,3.9114,3.9117,3.8856,3.9092,3.9091,3.9091,3.9091,3.9091,0,3.716,3.7261,3.7412,3.7603,3.7733,3.7751,3.7903,3.8011,3.8174,3.8311,3.8453,3.8656,3.8825,3.8957,3.913,3.9222,3.9241,3.9264,3.9259,3.928,3.9119,3.9074,3.9246,3.9246,3.9246,3.9246,3.9246,3.9245,3.7282,3.7476,3.754,3.779,3.789,3.8072,3.8158,3.8275,3.8385,3.8609,3.875,3.8834,3.8969,3.9152,3.9307,3.9342,3.9403,3.9424,3.9461,3.9308,3.9292,3.9276,3.9234,3.9436,3.9437,3.9611,3.9612,3.9613]}]]